GW3424 Weather Reports


Display with metric or nautical units.
time (UTC)temp
F
wind
direction
speed
MPH
gust
MPH
rain 1hr
in
rain 24hr
in
rain mn
in
humidity
%
barometer
mb
20260905012551 100 18 10.0 18.0 0.00 0.00 0.00 24 971.9
20260905012052 100 140 9.0 20.0 0.00 0.00 0.00 23 971.8
20260905011552 100 116 12.0 21.0 0.00 0.00 0.00 24 971.6
20260905011051 101 107 13.0 21.0 0.00 0.00 0.00 24 971.7
20260905010552 101 74 10.0 16.0 0.00 0.00 0.00 24 971.6
20260905010051 101 92 9.0 16.0 0.00 0.00 0.00 24 971.6
20260905005551 101 105 10.0 18.0 0.00 0.00 0.00 24 971.6
20260905005051 101 90 13.0 18.0 0.00 0.00 0.00 24 971.6
20260905004552 101 149 8.0 16.0 0.00 0.00 0.00 24 971.5
20260905004051 101 94 9.0 16.0 0.00 0.00 0.00 24 971.6
20260905003552 101 123 11.0 15.0 0.00 0.00 0.00 25 971.7
20260905003052 101 107 10.0 16.0 0.00 0.00 0.00 24 971.5
20260905002556 101 98 12.0 19.0 0.00 0.00 0.00 24 971.6
20260905002052 102 98 10.0 19.0 0.00 0.00 0.00 24 971.6
20260905001552 101 136 9.0 18.0 0.00 0.00 0.00 23 971.6
20260905001051 101 103 10.0 16.0 0.00 0.00 0.00 24 971.5
20260905000552 101 78 10.0 21.0 0.00 0.00 0.00 24 971.6
20260905000052 101 97 12.0 21.0 0.00 0.00 0.00 24 971.6
20260904235553 101 92 12.0 16.0 0.00 0.00 0.00 25 971.6
20260904235051 102 116 10.0 17.0 0.00 0.00 0.00 25 971.6
20260904234556 102 92 9.0 18.0 0.00 0.00 0.00 25 971.7
20260904234051 102 102 11.0 17.0 0.00 0.00 0.00 25 971.7
20260904233554 102 110 8.0 15.0 0.00 0.00 0.00 25 971.6
20260904233053 102 110 11.0 20.0 0.00 0.00 0.00 25 971.7
20260904232552 102 74 10.0 20.0 0.00 0.00 0.00 25 971.7
20260904232052 102 182 4.0 10.0 0.00 0.00 0.00 25 971.9
20260904231552 102 75 2.0 12.0 0.00 0.00 0.00 26 971.9
20260904231051 102 101 5.0 13.0 0.00 0.00 0.00 26 971.9
20260904230553 101 119 7.0 16.0 0.00 0.00 0.00 26 971.9
20260904230053 101 86 10.0 18.0 0.00 0.00 0.00 26 972.0
20260904225551 102 89 8.0 18.0 0.00 0.00 0.00 26 972.1
20260904225054 102 85 5.0 9.0 0.00 0.00 0.00 26 972.1
20260904224603 102 138 4.0 7.0 0.00 0.00 0.00 27 972.1
20260904224051 102 157 1.0 5.0 0.00 0.00 0.00 27 972.0
20260904223551 101 130 1.0 11.0 0.00 0.00 0.00 27 972.3
20260904223053 101 120 6.0 12.0 0.00 0.00 0.00 28 972.3
20260904222552 100 115 7.0 17.0 0.00 0.00 0.00 28 972.4
20260904222052 101 101 11.0 19.0 0.00 0.00 0.00 27 972.4
20260904221557 102 126 10.0 19.0 0.00 0.00 0.00 26 972.4
20260904221052 102 67 6.0 12.0 0.00 0.00 0.00 26 972.5
20260904220552 102 90 8.0 15.0 0.00 0.00 0.00 26 972.5
20260904220055 101 50 8.0 15.0 0.00 0.00 0.00 27 972.5
20260904215552 101 101 8.0 13.0 0.00 0.00 0.00 27 972.7
20260904215051 101 138 5.0 14.0 0.00 0.00 0.00 30 972.8
20260904214552 101 134 8.0 16.0 0.00 0.00 0.00 29 972.7
20260904214052 101 211 6.0 16.0 0.00 0.00 0.00 30 972.7
20260904213551 101 176 3.0 11.0 0.00 0.00 0.00 29 972.7
20260904213051 101 72 2.0 11.0 0.00 0.00 0.00 29 972.8
20260904212552 100 242 2.0 5.0 0.00 0.00 0.00 30 972.9
20260904212051 100 125 0.0 12.0 0.00 0.00 0.00 30 973.1
20260904211553 100 105 4.0 12.0 0.00 0.00 0.00 30 973.2
20260904211051 101 74 5.0 11.0 0.00 0.00 0.00 30 973.1
20260904210551 101 98 6.0 11.0 0.00 0.00 0.00 30 973.2
20260904210055 101 180 6.0 9.0 0.00 0.00 0.00 30 973.2
20260904205551 101 139 3.0 8.0 0.00 0.00 0.00 30 973.4
20260904205051 101 89 4.0 10.0 0.00 0.00 0.00 31 973.4
20260904204551 101 109 1.0 12.0 0.00 0.00 0.00 31 973.4
20260904204051 100 46 7.0 14.0 0.00 0.00 0.00 31 973.6
20260904203551 100 63 7.0 15.0 0.00 0.00 0.00 32 973.6
20260904203051 100 106 6.0 18.0 0.00 0.00 0.00 31 973.7
20260904202551 100 24 8.0 16.0 0.00 0.00 0.00 31 973.8
20260904202051 101 75 6.0 15.0 0.00 0.00 0.00 31 973.9
20260904201609 102 22 8.0 14.0 0.00 0.00 0.00 30 973.8
20260904201051 102 68 2.0 8.0 0.00 0.00 0.00 31 973.8
20260904200551 101 12 5.0 8.0 0.00 0.00 0.00 32 974.0
20260904200051 100 36 2.0 6.0 0.00 0.00 0.00 32 974.0
20260904195552 99 75 2.0 10.0 0.00 0.00 0.00 33 974.2
20260904195051 99 70 6.0 10.0 0.00 0.00 0.00 33 974.3
20260904194603 100 113 2.0 8.0 0.00 0.00 0.00 33 974.3
20260904194052 100 231 2.0 9.0 0.00 0.00 0.00 35 974.3
20260904193551 99 242 3.0 10.0 0.00 0.00 0.00 37 974.3
20260904193051 98 10 1.0 10.0 0.00 0.00 0.00 38 974.4
20260904192551 97 305 1.0 15.0 0.00 0.00 0.00 39 974.5
20260904192051 98 305 8.0 15.0 0.00 0.00 0.00 38 974.6
20260904191556 99 47 2.0 9.0 0.00 0.00 0.00 37 974.7
20260904191051 99 243 5.0 14.0 0.00 0.00 0.00 37 974.8
20260904190551 99 72 6.0 14.0 0.00 0.00 0.00 36 974.8
20260904190051 98 26 2.0 6.0 0.00 0.00 0.00 37 974.9
20260904185555 97 286 3.0 9.0 0.00 0.00 0.00 37 975.0
20260904185054 96 360 5.0 10.0 0.00 0.00 0.00 38 975.1
20260904184555 97 78 5.0 10.0 0.00 0.00 0.00 38 975.1
20260904184051 96 157 3.0 8.0 0.00 0.00 0.00 41 975.2
20260904183554 96 171 2.0 9.0 0.00 0.00 0.00 42 975.5
20260904183051 96 159 5.0 9.0 0.00 0.00 0.00 41 975.4
20260904182552 95 240 3.0 8.0 0.00 0.00 0.00 42 975.5
20260904182052 95 244 3.0 9.0 0.00 0.00 0.00 43 975.6
20260904181551 95 341 4.0 14.0 0.00 0.00 0.00 43 975.7
20260904181051 95 321 8.0 14.0 0.00 0.00 0.00 43 975.9
20260904180551 95 360 0.0 9.0 0.00 0.00 0.00 44 975.9
20260904180052 94 84 5.0 11.0 0.00 0.00 0.00 44 976.0
20260904175551 94 82 7.0 17.0 0.00 0.00 0.00 45 975.9
20260904175051 94 63 3.0 17.0 0.00 0.00 0.00 45 975.8
20260904174551 94 309 7.0 13.0 0.00 0.00 0.00 46 975.9
20260904174051 94 309 8.0 14.0 0.00 0.00 0.00 46 976.0
20260904173551 94 9 2.0 9.0 0.00 0.00 0.00 46 976.1
20260904173111 94 307 2.0 10.0 0.00 0.00 0.00 46 976.2
20260904172551 93 283 1.0 8.0 0.00 0.00 0.00 47 976.2
20260904172050 93 317 3.0 10.0 0.00 0.00 0.00 48 976.2
20260904171605 92 323 3.0 11.0 0.00 0.00 0.00 49 976.1
20260904171052 92 323 7.0 14.0 0.00 0.00 0.00 49 976.0
20260904170553 92 305 8.0 14.0 0.00 0.00 0.00 50 976.1
20260904170051 91 286 7.0 14.0 0.00 0.00 0.00 50 975.9
20260904165551 91 347 5.0 13.0 0.00 0.00 0.00 50 975.9
20260904165050 91 17 5.0 14.0 0.00 0.00 0.00 51 976.0
20260904164556 91 360 7.0 14.0 0.00 0.00 0.00 51 976.0
20260904164052 91 317 8.0 11.0 0.00 0.00 0.00 52 975.9
20260904163552 90 360 6.0 15.0 0.00 0.00 0.00 53 975.9
20260904163054 90 360 8.0 15.0 0.00 0.00 0.00 53 975.8
20260904162551 90 360 8.0 14.0 0.00 0.00 0.00 54 975.8
20260904162050 90 360 9.0 15.0 0.00 0.00 0.00 55 975.8
20260904161551 89 18 9.0 15.0 0.00 0.00 0.00 56 975.9
20260904161051 89 17 11.0 15.0 0.00 0.00 0.00 55 975.8
20260904160551 89 9 11.0 15.0 0.00 0.00 0.00 56 975.8
20260904160051 89 351 9.0 15.0 0.00 0.00 0.00 57 975.7
20260904155550 88 360 10.0 18.0 0.00 0.00 0.00 58 975.7
20260904155051 88 360 10.0 18.0 0.00 0.00 0.00 59 975.7
20260904154551 87 11 12.0 18.0 0.00 0.00 0.00 60 975.7
20260904154053 87 360 14.0 21.0 0.00 0.00 0.00 60 975.5
20260904153551 87 10 13.0 21.0 0.00 0.00 0.00 61 975.5
20260904153053 87 360 13.0 17.0 0.00 0.00 0.00 61 975.5
20260904152552 87 12 10.0 16.0 0.00 0.00 0.00 62 975.5
20260904152051 86 19 10.0 16.0 0.00 0.00 0.00 63 975.5
20260904151551 85 360 10.0 14.0 0.00 0.00 0.00 64 975.5
20260904151051 85 360 10.0 14.0 0.00 0.00 0.00 65 975.4
20260904150552 85 11 10.0 14.0 0.00 0.00 0.00 65 975.6
20260904150106 84 360 9.0 14.0 0.00 0.00 0.00 65 975.6
20260904145551 84 19 10.0 14.0 0.00 0.00 0.00 66 975.6
20260904145050 84 20 9.0 13.0 0.00 0.00 0.00 66 975.6
20260904144551 84 360 10.0 13.0 0.00 0.00 0.00 66 975.5
20260904144051 84 19 8.0 14.0 0.00 0.00 0.00 66 975.4
20260904143551 83 360 11.0 16.0 0.00 0.00 0.00 66 975.4
20260904143051 83 360 12.0 16.0 0.00 0.00 0.00 65 975.4
20260904142552 83 360 11.0 15.0 0.00 0.00 0.00 65 975.3
20260904142051 83 360 9.0 15.0 0.00 0.00 0.00 65 975.2
20260904141557 83 11 12.0 15.0 0.00 0.00 0.00 65 975.1
20260904141051 83 59 10.0 16.0 0.00 0.00 0.00 65 975.1
20260904140551 83 347 10.0 14.0 0.00 0.00 0.00 65 975.2
20260904140051 83 344 8.0 14.0 0.00 0.00 0.00 66 975.1
20260904135551 83 360 9.0 14.0 0.00 0.00 0.00 66 975.0
20260904135051 82 360 10.0 15.0 0.00 0.00 0.00 66 974.8
20260904134557 82 360 10.0 15.0 0.00 0.00 0.00 66 974.8
20260904134051 82 360 9.0 14.0 0.00 0.00 0.00 66 974.7
20260904133552 82 360 10.0 13.0 0.00 0.00 0.00 66 974.7
20260904133051 82 360 9.0 13.0 0.00 0.00 0.00 66 974.6
20260904132551 82 360 6.0 13.0 0.00 0.00 0.00 66 974.5
20260904132052 82 360 7.0 12.0 0.00 0.00 0.00 66 974.5
20260904131553 82 360 8.0 13.0 0.00 0.00 0.00 65 974.4
20260904131054 82 360 8.0 13.0 0.00 0.00 0.00 65 974.3
20260904130551 82 360 9.0 12.0 0.00 0.00 0.00 65 974.2
20260904130051 82 360 7.0 12.0 0.00 0.00 0.00 65 974.2
20260904125552 82 360 7.0 13.0 0.00 0.00 0.00 65 974.0
20260904125052 82 360 8.0 13.0 0.00 0.00 0.00 65 974.0
20260904124551 82 360 8.0 13.0 0.00 0.00 0.00 65 974.0
20260904124051 81 360 8.0 13.0 0.00 0.00 0.00 66 973.9
20260904123552 81 360 6.0 9.0 0.00 0.00 0.00 66 973.9
20260904123051 80 360 6.0 9.0 0.00 0.00 0.00 66 973.8
20260904122551 80 360 7.0 9.0 0.00 0.00 0.00 65 973.7
20260904122051 81 360 6.0 9.0 0.00 0.00 0.00 64 973.7
20260904121550 82 360 5.0 8.0 0.00 0.00 0.00 63 973.7
20260904121050 82 360 6.0 8.0 0.00 0.00 0.00 63 973.6
20260904120552 82 360 4.0 5.0 0.00 0.00 0.00 62 973.6
20260904120103 83 360 3.0 6.0 0.00 0.00 0.00 62 973.7
20260904115551 83 360 4.0 6.0 0.00 0.00 0.00 61 973.6
20260904115055 83 360 4.0 8.0 0.00 0.00 0.00 61 973.6
20260904114551 83 360 5.0 8.0 0.00 0.00 0.00 60 973.6
20260904114051 84 360 6.0 9.0 0.00 0.00 0.00 60 973.5
20260904113553 84 360 7.0 9.0 0.00 0.00 0.00 59 973.5
20260904113051 84 360 4.0 6.0 0.00 0.00 0.00 59 973.5
20260904112551 84 360 4.0 6.0 0.00 0.00 0.00 58 973.6
20260904112052 84 360 3.0 5.0 0.00 0.00 0.00 58 973.6
20260904111551 85 360 4.0 6.0 0.00 0.00 0.00 57 973.5
20260904111051 85 360 3.0 9.0 0.00 0.00 0.00 56 973.5
20260904110552 85 360 5.0 9.0 0.00 0.00 0.00 56 973.6
20260904110051 85 360 5.0 8.0 0.00 0.00 0.00 56 973.5
20260904105553 85 360 3.0 6.0 0.00 0.00 0.00 56 973.5
20260904105051 85 360 3.0 6.0 0.00 0.00 0.00 55 973.4
20260904104551 85 360 2.0 4.0 0.00 0.00 0.00 55 973.4
20260904104050 85 360 2.0 5.0 0.00 0.00 0.00 55 973.4
20260904103551 85 360 3.0 6.0 0.00 0.00 0.00 54 973.4
20260904103051 85 360 4.0 8.0 0.00 0.00 0.00 54 973.5
20260904102551 85 360 2.0 8.0 0.00 0.00 0.00 54 973.4
20260904102052 86 360 4.0 8.0 0.00 0.00 0.00 54 973.2
20260904101551 86 360 1.0 4.0 0.00 0.00 0.00 54 973.1
20260904101051 85 360 0.0 4.0 0.00 0.00 0.00 54 973.0
20260904100551 85 360 2.0 4.0 0.00 0.00 0.00 56 973.2
20260904100052 85 360 1.0 2.0 0.00 0.00 0.00 56 973.0
20260904095552 84 360 1.0 2.0 0.00 0.00 0.00 57 972.9
20260904095051 84 360 0.0 4.0 0.00 0.00 0.00 59 972.9
20260904094558 84 360 2.0 5.0 0.00 0.00 0.00 59 972.9
20260904094051 83 360 3.0 5.0 0.00 0.00 0.00 60 973.0
20260904093551 83 360 3.0 8.0 0.00 0.00 0.00 60 973.0
20260904093103 84 360 3.0 9.0 0.00 0.00 0.00 59 973.0
20260904092551 84 360 0.0 8.0 0.00 0.00 0.00 58 972.8
20260904092051 84 360 0.0 1.0 0.00 0.00 0.00 58 972.7
20260904091551 84 360 0.0 2.0 0.00 0.00 0.00 58 972.8
20260904091051 84 360 1.0 2.0 0.00 0.00 0.00 59 972.8
20260904090550 84 360 0.0 4.0 0.00 0.00 0.00 58 972.9
20260904090051 85 360 0.0 4.0 0.00 0.00 0.00 59 972.8
20260904085553 85 360 1.0 5.0 0.00 0.00 0.00 58 972.8
20260904085051 85 360 3.0 5.0 0.00 0.00 0.00 58 972.8
20260904084551 85 360 0.0 3.0 0.00 0.00 0.00 57 972.9
20260904084050 85 360 0.0 5.0 0.00 0.00 0.00 57 972.9
20260904083551 85 360 2.0 5.0 0.00 0.00 0.00 58 972.9
20260904083051 85 360 2.0 4.0 0.00 0.00 0.00 58 972.9
20260904082552 85 360 1.0 4.0 0.00 0.00 0.00 58 972.9
20260904082054 85 360 2.0 5.0 0.00 0.00 0.00 58 973.0
20260904081551 85 360 2.0 6.0 0.00 0.00 0.00 58 973.1
20260904081051 85 360 3.0 10.0 0.00 0.00 0.00 56 973.0
20260904080551 86 360 7.0 10.0 0.00 0.00 0.00 54 973.0
20260904080053 87 360 6.0 10.0 0.00 0.00 0.00 51 972.9
20260904075551 88 360 2.0 6.0 0.00 0.00 0.00 49 973.0
20260904075052 89 360 1.0 4.0 0.00 0.00 0.00 47 972.9
20260904074556 89 360 2.0 4.0 0.00 0.00 0.00 47 972.9
20260904074051 89 360 2.0 4.0 0.00 0.00 0.00 47 972.9
20260904073552 90 360 2.0 4.0 0.00 0.00 0.00 46 972.9
20260904073051 90 360 1.0 4.0 0.00 0.00 0.00 45 972.9
20260904072551 91 360 0.0 3.0 0.00 0.00 0.00 44 973.0
20260904072051 91 360 0.0 3.0 0.00 0.00 0.00 44 973.0
20260904071551 92 360 0.0 2.0 0.00 0.00 0.00 44 972.9
20260904071051 92 360 0.0 5.0 0.00 0.00 0.00 44 972.9
20260904070551 92 360 3.0 6.0 0.00 0.00 0.00 42 972.8
20260904070058 92 360 4.0 6.0 0.00 0.00 0.00 41 973.0
20260904065550 92 360 3.0 6.0 0.00 0.00 0.00 42 972.9
20260904065051 92 360 2.0 6.0 0.00 0.00 0.00 41 972.7
20260904064551 92 360 3.0 8.0 0.00 0.00 0.00 41 972.9
20260904064051 92 360 4.0 8.0 0.00 0.00 0.00 41 972.8
20260904063553 93 360 5.0 8.0 0.00 0.00 0.00 41 972.7
20260904063053 93 360 3.0 8.0 0.00 0.00 0.00 41 972.7
20260904062551 93 360 4.0 9.0 0.00 0.00 0.00 41 972.7
20260904062051 93 360 6.0 9.0 0.00 0.00 0.00 41 972.6
20260904061551 93 360 5.0 9.0 0.00 0.00 0.00 41 972.5
20260904061051 93 360 4.0 9.0 0.00 0.00 0.00 41 972.5
20260904060551 93 360 4.0 10.0 0.00 0.00 0.00 41 972.7
20260904060051 93 360 5.0 13.0 0.00 0.00 0.00 41 972.5
20260904055551 92 360 5.0 13.0 0.00 0.00 0.00 42 972.5
20260904055051 91 360 5.0 11.0 0.00 0.00 0.00 43 972.5
20260904054553 91 360 4.0 9.0 0.00 0.00 0.00 43 972.4
20260904054050 92 360 6.0 10.0 0.00 0.00 0.00 43 972.4
20260904053551 94 360 3.0 10.0 0.00 0.00 0.00 40 972.5
20260904053051 94 360 2.0 11.0 0.00 0.00 0.00 39 972.5
20260904052551 94 360 5.0 13.0 0.00 0.00 0.00 39 972.2
20260904052051 94 360 8.0 13.0 0.00 0.00 0.00 39 972.3
20260904051558 94 360 6.0 11.0 0.00 0.00 0.00 39 972.3
20260904051050 93 360 4.0 8.0 0.00 0.00 0.00 40 972.3
20260904050551 92 360 2.0 6.0 0.00 0.00 0.00 41 972.3
20260904050051 92 360 1.0 9.0 0.00 0.00 0.00 43 972.2
20260904045551 93 360 5.0 10.0 0.00 0.00 0.00 42 972.3
20260904045051 95 360 5.0 13.0 0.00 0.00 0.00 39 972.2
20260904044551 95 360 8.0 13.0 0.00 0.00 0.00 37 972.2
20260904044051 95 360 7.0 13.0 0.00 0.00 0.00 38 972.2
20260904043551 94 360 8.0 12.0 0.00 0.00 0.00 39 971.9
20260904043054 92 360 3.0 10.0 0.00 0.00 0.00 41 971.9
20260904042551 90 360 5.0 12.0 0.00 0.00 0.00 47 972.0
20260904042051 89 360 9.0 12.0 0.00 0.00 0.00 49 972.1
20260904041551 89 360 9.0 12.0 0.00 0.00 0.00 50 971.9
20260904041051 89 360 9.0 12.0 0.00 0.00 0.00 50 972.1
20260904040553 89 360 9.0 13.0 0.00 0.00 0.00 50 972.0
20260904035551 89 360 10.0 13.0 0.00 0.00 0.00 50 972.0
20260904035053 89 360 10.0 14.0 0.00 0.00 0.00 50 971.8
20260904034554 90 360 10.0 15.0 0.00 0.00 0.00 49 971.8
20260904034051 90 360 11.0 15.0 0.00 0.00 0.00 49 971.7
20260904033551 90 360 10.0 13.0 0.00 0.00 0.00 48 971.8
20260904033051 90 360 9.0 13.0 0.00 0.00 0.00 48 971.6
20260904032550 90 360 8.0 14.0 0.00 0.00 0.00 48 971.5
20260904032050 90 360 9.0 14.0 0.00 0.00 0.00 48 971.5
20260904031551 90 360 10.0 14.0 0.00 0.00 0.00 47 971.5
20260904031051 91 360 11.0 17.0 0.00 0.00 0.00 47 971.3
20260904030551 91 360 11.0 17.0 0.00 0.00 0.00 46 971.2
20260904030056 92 360 8.0 12.0 0.00 0.00 0.00 46 971.2
20260904025553 92 360 6.0 13.0 0.00 0.00 0.00 45 971.3
20260904025052 92 360 7.0 12.0 0.00 0.00 0.00 45 971.2
20260904024554 92 360 9.0 12.0 0.00 0.00 0.00 44 971.1
20260904024053 93 360 5.0 10.0 0.00 0.00 0.00 44 971.0
20260904023551 93 360 4.0 19.0 0.00 0.00 0.00 44 971.0
20260904023058 93 360 9.0 19.0 0.00 0.00 0.00 44 970.9
20260904022551 93 360 13.0 17.0 0.00 0.00 0.00 43 970.9
20260904022051 94 360 13.0 17.0 0.00 0.00 0.00 42 970.8
20260904021556 95 360 10.0 14.0 0.00 0.00 0.00 41 970.8
20260904021051 96 360 2.0 13.0 0.00 0.00 0.00 39 970.7
20260904020551 97 360 9.0 13.0 0.00 0.00 0.00 38 970.7
20260904020053 97 360 8.0 15.0 0.00 0.00 0.00 37 970.6
20260904015551 98 13 5.0 19.0 0.00 0.00 0.00 37 970.6
20260904015051 99 360 13.0 19.0 0.00 0.00 0.00 34 970.6
20260904014559 100 360 8.0 13.0 0.00 0.00 0.00 28 970.5
20260904014051 100 13 8.0 13.0 0.00 0.00 0.00 28 970.3
20260904013551 100 88 3.0 10.0 0.00 0.00 0.00 28 970.3
20260904013051 99 183 3.0 7.0 0.00 0.00 0.00 30 970.2